This is the latest recevied weather packets stored in our database for station/object KA1JKB. If no packets are shown the sender has not sent any weather packets the latest 10 day(s).
| Time | Temp. | Humidity | Pressure | Rain* | Wind** | Luminosity | Snow |
|---|---|---|---|---|---|---|---|
| 1777655131 | 9.44° C | 60% | 1010.9 hPa | 0 mm | - | 386 W/m² | - |
| 1777654829 | 8.89° C | 62% | 1010.8 hPa | 0 mm | - | 314 W/m² | - |
| 1777654526 | 8.33° C | 63% | 1011 hPa | 0 mm | - | 351 W/m² | - |
| 1777654224 | 8.33° C | 61% | 1010.6 hPa | 0 mm | - | 299 W/m² | - |
| 1777653921 | 8.33° C | 63% | 1010.8 hPa | 0 mm | - | 232 W/m² | - |
| 1777653618 | 8.89° C | 65% | 1010.9 hPa | 0 mm | - | 228 W/m² | - |
| 1777653314 | 8.89° C | 63% | 1010.9 hPa | 0 mm | - | 324 W/m² | - |
| 1777653011 | 8.89° C | 64% | 1011.3 hPa | 0 mm | - | 625 W/m² | - |
| 1777652707 | 8.89° C | 66% | 1010.7 hPa | 0 mm | - | 293 W/m² | - |
| 1777652404 | 8.89° C | 67% | 1010.8 hPa | 0 mm | - | 229 W/m² | - |
| 1777652101 | 8.33° C | 65% | 1010.8 hPa | 0 mm | - | 170 W/m² | - |
| 1777651798 | 8.89° C | 62% | 1011 hPa | 0 mm | - | 137 W/m² | - |
| 1777651495 | 8.89° C | 63% | 1011 hPa | 0 mm | - | 165 W/m² | - |
| 1777651192 | 9.44° C | 65% | 1010.8 hPa | 0 mm | - | 262 W/m² | - |
| 1777650889 | 9.44° C | 65% | 1010.6 hPa | 0 mm | - | 316 W/m² | - |
| 1777650585 | 9.44° C | 62% | 1010.7 hPa | 0 mm | - | 598 W/m² | - |
| 1777650283 | 10° C | 66% | 1010.7 hPa | 0 mm | - | 922 W/m² | - |
| 1777649979 | 8.89° C | 68% | 1010.8 hPa | 0 mm | - | 521 W/m² | - |
| 1777649678 | 8.89° C | 72% | 1010.8 hPa | 0 mm | - | 243 W/m² | - |
| 1777649373 | 8.33° C | 72% | 1010.9 hPa | 0 mm | - | 343 W/m² | - |
| 1777649071 | 8.89° C | 73% | 1010.7 hPa | 0 mm | - | 208 W/m² | - |
| 1777648768 | 8.89° C | 72% | 1010.9 hPa | 0 mm | - | 322 W/m² | - |
| 1777648465 | 8.89° C | 76% | 1010.9 hPa | 0 mm | - | 777 W/m² | - |
| 1777648161 | 9.44° C | 75% | 1010.8 hPa | 0 mm | - | 949 W/m² | - |
| 1777647857 | 7.78° C | 81% | 1010.7 hPa | 0 mm | - | 857 W/m² | - |
* Rain latest hour (hover to see other rain measurements)
** Current wind speed in m/s (hover to see current wind gust speed)